{"data":{"norad_id":66313,"epoch":"2026-05-24T19:53:59.791200Z","epoch_age_seconds":85818,"freshness":"FRESH","line1":"1 66313U 25250A   26144.82916425 -.00000039  00000+0  00000+0 0  9998","line2":"2 66313  20.0901 352.1461 0004308 102.0511 258.0129  5.31203760 10858","mean_motion":5.3120376,"eccentricity":0.0004308,"inclination_deg":20.0901,"raan_deg":352.1461,"arg_perigee_deg":102.0511,"mean_anomaly_deg":258.0129,"bstar":0,"rev_number":1085,"period_min":271.08241854312,"perigee_km":7490.7181831939,"apogee_km":7502.6727388424,"semimajor_km":13874.832461018,"source":"CELESTRAK","updated_at":"2026-05-25T13:38:06.133605Z"}}